{"data":{"norad_id":43927,"intl_designator":"2019-002F","name":"IRIDIUM 172","alt_names":[],"object_type":"PAYLOAD","status":"ACTIVE","operator":null,"country":"US","launch_date":"2019-01-11","launch_site_code":"AFWTR","launch_vehicle":null,"mission":null,"orbit_class":"UNKNOWN","rcs_meters":null,"size_class":null,"mass_kg":null,"dimensions":null,"purposes":["comms"],"wikipedia_slug":null,"has_3d_model":false,"image_url":null,"decayed_at":null,"tle_current":{"epoch":"2026-05-25T02:05:14.733312Z","epoch_age_seconds":77918,"freshness":"FRESH","line1":"1 43927U 19002F   26145.08697608  .00000087  00000+0  23858-4 0  9993","line2":"2 43927  86.3982   3.2296 0002236  88.9493 271.1959 14.34217223385659","mean_motion":14.34217223,"eccentricity":0.0002236,"inclination_deg":86.3982,"raan_deg":3.2296,"arg_perigee_deg":88.9493,"mean_anomaly_deg":271.1959,"bstar":2.3858e-5,"rev_number":38565,"period_min":100.40320091736,"perigee_km":776.06886907563,"apogee_km":779.26894547736,"semimajor_km":7155.8059072765,"source":"CELESTRAK","updated_at":"2026-05-25T13:38:14.814966Z"}}}